�N����,����,�~����,�C��,���x,�C��,����,���ϕ���,�ő�u�ԕ���,�ő厞����,���˗�,�I�_���x,�n�����x,�ő啗���N��,DTYPE
"16/08/31","00:10",0.0,20.7,83.9,988.7,299.5,1.0,1.6,316.5,0.00,17.9,23.8,"00:02:56",1
"16/08/31","00:20",0.0,20.7,84.1,988.7,308.9,1.0,1.7,322.1,0.00,18.0,23.7,"00:14:24",1
"16/08/31","00:30",0.0,20.8,84.6,988.7,307.8,1.1,1.6,312.9,0.00,18.2,23.7,"00:28:08",1
"16/08/31","00:40",0.0,20.7,84.8,988.7,295.0,0.7,1.8,323.4,0.00,18.1,23.7,"00:30:24",1
"16/08/31","00:50",0.0,20.6,84.7,988.7,296.4,1.0,1.6,322.9,0.00,18.0,23.8,"00:42:08",1
"16/08/31","01:00",0.0,20.6,84.9,988.9,291.3,0.8,1.2,303.7,0.00,18.0,23.7,"00:51:36",1
"16/08/31","01:10",0.0,20.6,85.4,988.7,287.5,0.8,1.1,322.8,0.00,18.1,23.7,"01:09:28",1
"16/08/31","01:20",0.0,20.5,84.9,988.7,308.3,1.0,1.4,322.0,0.00,17.9,23.9,"01:15:36",1
"16/08/31","01:30",0.0,20.5,85.2,988.7,300.2,1.1,1.6,320.9,0.00,18.0,23.6,"01:20:56",1
"16/08/31","01:40",0.0,20.5,85.5,988.7,301.7,1.0,1.6,317.0,0.00,18.0,23.7,"01:33:52",1
"16/08/31","01:50",0.0,20.4,84.6,989.2,304.8,0.8,2.0,341.2,0.00,17.8,23.5,"01:49:04",1
"16/08/31","02:00",0.0,20.7,83.9,988.9,306.6,1.0,1.9,338.7,0.00,17.9,23.7,"01:50:48",1
"16/08/31","02:10",0.0,20.7,83.1,988.9,258.6,1.1,2.0,243.7,0.00,17.8,23.7,"02:07:36",1
"16/08/31","02:20",0.0,20.8,82.6,989.4,277.9,1.2,1.9,321.3,0.00,17.8,23.5,"02:13:12",1
"16/08/31","02:30",0.0,20.7,82.7,989.2,284.8,1.0,1.3,321.9,0.00,17.7,23.6,"02:29:52",1
"16/08/31","02:40",0.0,20.5,82.9,988.9,300.7,1.0,1.2,309.0,0.00,17.5,23.4,"02:31:52",1
"16/08/31","02:50",0.0,20.4,85.1,989.4,315.2,1.1,1.9,338.2,0.00,17.9,23.7,"02:47:44",1
"16/08/31","03:00",0.0,20.2,85.6,989.2,292.9,0.8,1.3,324.2,0.00,17.8,23.6,"02:54:40",1
"16/08/31","03:10",0.0,20.1,85.2,989.4,284.7,0.8,1.0,302.8,0.00,17.6,23.5,"03:05:44",1
"16/08/31","03:20",0.0,20.2,85.3,989.2,300.2,0.8,1.0,297.3,0.00,17.7,23.4,"03:10:32",1
"16/08/31","03:30",0.0,20.2,85.8,989.6,298.8,0.8,1.0,314.7,0.00,17.8,23.4,"03:23:04",1
"16/08/31","03:40",0.0,20.1,85.9,989.4,294.4,0.8,1.1,307.1,0.00,17.7,23.4,"03:32:00",1
"16/08/31","03:50",0.0,20.1,86.7,989.9,291.0,0.7,1.0,259.2,0.00,17.9,23.3,"03:47:28",1
"16/08/31","04:00",0.0,20.0,87.3,989.9,302.1,0.8,1.2,311.0,0.00,17.9,23.5,"03:50:02",1
"16/08/31","04:10",0.0,19.7,88.1,989.9,308.2,1.0,1.3,314.9,0.00,17.7,23.5,"04:00:24",1
"16/08/31","04:20",0.0,19.4,88.6,990.1,300.5,1.0,1.3,329.0,0.00,17.5,23.4,"04:13:44",1
"16/08/31","04:30",0.0,19.0,89.1,990.1,309.3,0.7,1.0,307.4,0.00,17.2,23.2,"04:20:24",1
"16/08/31","04:40",0.0,18.8,89.4,990.1,306.5,1.1,1.6,326.0,0.00,17.1,23.2,"04:34:08",1
"16/08/31","04:50",0.0,18.6,89.9,990.4,309.9,0.8,1.4,320.4,0.00,17.0,23.2,"04:40:56",1
"16/08/31","05:00",0.0,18.5,90.4,990.4,309.2,1.1,1.4,320.8,0.00,16.9,23.2,"04:54:24",1
"16/08/31","05:10",0.0,18.4,91.1,990.6,314.0,1.2,1.8,331.8,0.00,17.0,23.1,"05:02:40",1
"16/08/31","05:20",0.0,18.2,91.6,990.8,294.7,0.8,1.2,300.5,0.00,16.9,23.0,"05:10:24",1
"16/08/31","05:30",0.0,18.1,91.9,990.8,299.4,0.7,1.1,311.8,0.00,16.8,22.8,"05:23:04",1
"16/08/31","05:40",0.0,18.1,92.5,991.1,290.2,1.0,1.7,319.6,0.00,16.9,22.9,"05:36:24",1
"16/08/31","05:50",0.0,18.2,92.9,991.3,297.7,0.7,1.4,313.7,0.00,17.1,22.8,"05:48:00",1
"16/08/31","06:00",0.0,18.6,93.0,991.1,315.7,1.1,1.6,316.4,0.00,17.5,22.7,"05:51:44",1
"16/08/31","06:10",0.0,19.3,92.1,991.5,288.5,0.7,1.2,327.5,0.00,18.0,22.7,"06:00:08",1
"16/08/31","06:20",0.0,19.8,89.9,991.5,315.5,0.8,1.3,332.5,0.01,18.1,22.8,"06:19:20",1
"16/08/31","06:30",0.0,20.4,88.6,992.0,309.5,1.0,1.6,328.9,0.02,18.5,23.0,"06:29:12",1
"16/08/31","06:40",0.0,21.1,84.9,992.2,333.0,1.0,1.8,339.8,0.05,18.5,22.8,"06:34:48",1
"16/08/31","06:50",0.0,21.6,82.3,992.2,181.0,0.3,1.2,314.3,0.05,18.5,23.0,"06:40:24",1
"16/08/31","07:00",0.0,22.4,79.6,992.2,330.2,0.1,0.5,25.9,0.06,18.7,22.9,"06:56:48",1
"16/08/31","07:10",0.0,23.3,74.2,992.5,332.2,0.1,0.6,27.0,0.08,18.5,22.8,"07:04:32",1
"16/08/31","07:20",0.0,23.6,72.2,992.5,218.3,0.2,0.8,196.2,0.10,18.3,22.9,"07:17:04",1
"16/08/31","07:30",0.0,24.1,73.0,992.7,16.1,0.5,1.0,348.1,0.13,19.0,23.2,"07:23:04",1
"16/08/31","07:40",0.0,24.4,70.9,992.2,301.0,0.3,1.2,228.6,0.15,18.8,23.1,"07:37:20",1
"16/08/31","07:50",0.0,25.1,67.6,992.2,168.2,0.5,1.2,184.7,0.18,18.7,23.2,"07:46:24",1
"16/08/31","08:00",0.0,25.5,62.5,992.2,151.7,1.0,2.2,207.0,0.21,17.9,23.3,"07:58:08",1
"16/08/31","08:10",0.0,26.2,62.5,992.0,155.2,1.0,2.7,148.6,0.23,18.5,23.4,"08:00:08",1
"16/08/31","08:20",0.0,26.3,58.9,992.0,154.4,1.2,2.0,139.0,0.26,17.7,23.6,"08:19:04",1
"16/08/31","08:30",0.0,26.9,59.1,991.8,141.9,1.1,2.6,123.3,0.28,18.3,23.7,"08:27:12",1
"16/08/31","08:40",0.0,27.1,56.6,991.8,153.5,1.3,2.7,157.4,0.31,17.8,24.0,"08:38:24",1
"16/08/31","08:50",0.0,27.0,55.9,991.8,141.0,1.5,2.8,131.6,0.30,17.5,24.1,"08:49:04",1
"16/08/31","09:00",0.0,27.5,55.1,992.0,164.8,1.3,3.2,191.8,0.36,17.7,24.3,"08:55:44",1
"16/08/31","09:10",0.0,28.2,51.3,992.2,165.7,1.3,2.6,151.1,0.37,17.2,24.6,"09:04:08",1
"16/08/31","09:20",0.0,28.3,48.3,992.7,175.8,1.5,3.6,213.9,0.40,16.4,24.5,"09:18:32",1
"16/08/31","09:30",0.0,29.3,44.9,993.0,178.7,1.3,3.1,142.0,0.43,16.1,24.9,"09:21:52",1
"16/08/31","09:40",0.0,29.7,41.4,993.2,211.1,1.6,5.6,209.1,0.46,15.2,25.0,"09:30:02",1
"16/08/31","09:50",0.0,29.0,43.0,993.4,218.4,2.3,5.1,180.8,0.47,15.2,25.1,"09:40:48",1
"16/08/31","10:00",0.0,28.7,40.2,993.7,245.6,1.8,7.0,230.0,0.47,13.9,25.4,"09:57:44",1
"16/08/31","10:10",0.0,28.8,38.6,993.7,213.1,2.5,6.3,225.9,0.49,13.4,25.7,"10:09:20",1
"16/08/31","10:20",0.0,29.3,41.8,993.7,222.9,2.3,5.5,218.0,0.50,15.0,25.7,"10:14:16",1
"16/08/31","10:30",0.0,29.1,40.7,993.2,194.5,3.2,5.8,215.1,0.52,14.4,25.8,"10:22:40",1
"16/08/31","10:40",0.0,29.5,41.0,993.2,203.1,2.8,7.8,220.6,0.52,14.9,25.7,"10:31:20",1
"16/08/31","10:50",0.0,29.4,39.9,993.2,195.2,3.2,6.6,195.4,0.53,14.4,26.1,"10:49:36",1
"16/08/31","11:00",0.0,29.4,41.6,993.2,203.9,3.6,8.2,226.0,0.54,15.0,26.2,"10:56:16",1
"16/08/31","11:10",0.0,29.6,38.1,993.7,209.1,2.7,8.7,223.9,0.55,13.9,26.4,"11:08:48",1
"16/08/31","11:20",0.0,29.5,38.1,993.4,228.0,2.6,6.3,228.5,0.56,13.8,26.7,"11:10:24",1
"16/08/31","11:30",0.0,29.7,38.0,993.4,203.7,3.2,7.1,201.8,0.57,13.9,26.8,"11:27:42",1
"16/08/31","11:40",0.0,29.6,39.0,993.4,211.9,3.6,6.5,232.7,0.57,14.2,26.7,"11:33:12",1
"16/08/31","11:50",0.0,30.1,38.2,993.2,234.5,2.1,6.3,229.5,0.57,14.4,27.1,"11:42:56",1
"16/08/31","12:00",0.0,29.9,38.2,993.4,201.9,2.6,5.0,210.8,0.52,14.2,27.1,"11:58:32",1
"16/08/31","12:10",0.0,30.3,39.3,993.2,201.6,3.4,6.2,232.9,0.57,15.0,27.5,"12:04:56",1
"16/08/31","12:20",0.0,30.2,38.3,993.4,182.1,2.8,5.5,215.7,0.50,14.5,27.5,"12:10:16",1
"16/08/31","12:30",0.0,30.3,40.7,993.2,194.9,3.0,5.7,216.7,0.57,15.5,27.6,"12:23:04",1
"16/08/31","12:40",0.0,30.5,39.5,993.4,206.8,3.1,5.9,205.7,0.55,15.2,28.0,"12:39:52",1
"16/08/31","12:50",0.0,30.6,37.1,993.4,197.5,3.0,6.4,164.7,0.56,14.3,28.2,"12:49:04",1
"16/08/31","13:00",0.0,30.7,37.9,993.7,186.1,2.5,5.0,223.0,0.55,14.8,28.2,"12:52:24",1
"16/08/31","13:10",0.0,30.8,36.7,993.9,199.0,1.8,5.0,202.0,0.55,14.4,28.3,"13:06:56",1
"16/08/31","13:20",0.0,30.8,38.2,993.4,209.4,2.5,5.1,216.9,0.54,15.0,28.5,"13:19:52",1
"16/08/31","13:30",0.0,30.6,37.9,993.4,205.2,3.4,7.0,207.0,0.53,14.7,28.4,"13:27:12",1
"16/08/31","13:40",0.0,30.8,40.4,993.2,205.1,3.2,5.8,204.5,0.52,15.8,28.7,"13:30:08",1
"16/08/31","13:50",0.0,30.7,38.0,993.4,207.5,3.5,5.8,224.8,0.51,14.8,28.8,"13:40:48",1
"16/08/31","14:00",0.0,30.7,39.6,993.2,194.5,3.4,6.2,216.8,0.50,15.4,28.8,"13:58:16",1
"16/08/31","14:10",0.0,30.8,39.2,993.4,194.6,2.6,4.9,213.9,0.49,15.4,28.9,"14:08:08",1
"16/08/31","14:20",0.0,31.1,38.1,993.4,222.8,1.6,5.2,218.4,0.47,15.2,28.9,"14:18:24",1
"16/08/31","14:30",0.0,30.6,37.9,993.2,217.2,3.2,7.9,219.4,0.46,14.7,28.9,"14:22:40",1
"16/08/31","14:40",0.0,30.6,38.0,993.2,204.9,2.6,5.6,215.7,0.44,14.7,28.9,"14:36:16",1
"16/08/31","14:50",0.0,31.0,39.3,993.7,276.3,1.6,4.9,227.5,0.42,15.6,29.0,"14:40:40",1
"16/08/31","15:00",0.0,30.5,38.4,993.7,233.7,1.7,5.9,200.9,0.40,14.8,29.0,"14:56:16",1
"16/08/31","15:10",0.0,30.4,39.9,993.4,224.5,2.3,5.7,212.7,0.38,15.3,29.2,"15:02:48",1
"16/08/31","15:20",0.0,30.5,37.4,993.9,216.2,2.0,5.4,221.3,0.36,14.4,29.1,"15:10:02",1
"16/08/31","15:30",0.0,30.5,38.1,993.4,198.1,2.7,5.1,216.9,0.33,14.7,28.8,"15:21:44",1
"16/08/31","15:40",0.0,30.4,41.0,993.2,222.9,1.7,3.5,234.7,0.31,15.7,28.8,"15:37:20",1
"16/08/31","15:50",0.0,30.0,40.6,993.4,232.9,2.3,6.4,227.7,0.29,15.2,28.7,"15:49:28",1
"16/08/31","16:00",0.0,29.9,42.9,993.4,240.1,1.3,6.3,202.2,0.26,16.0,28.6,"15:51:52",1
"16/08/31","16:10",0.0,29.7,43.6,993.0,247.0,1.2,3.5,219.0,0.23,16.1,28.1,"16:01:04",1
"16/08/31","16:20",0.0,29.3,44.9,993.2,239.9,1.7,7.7,222.2,0.18,16.1,28.2,"16:12:08",1
"16/08/31","16:30",0.0,29.1,46.4,993.2,260.4,1.1,4.0,238.4,0.05,16.5,28.0,"16:26:00",1
"16/08/31","16:40",0.0,28.9,46.4,992.7,248.3,1.8,7.0,226.7,0.02,16.3,27.9,"16:32:56",1
"16/08/31","16:50",0.0,28.6,47.2,993.0,261.0,1.2,2.4,221.1,0.01,16.3,27.8,"16:42:00",1
"16/08/31","17:00",0.0,28.5,48.5,992.5,283.3,1.1,2.9,232.5,0.01,16.6,27.5,"16:51:44",1
"16/08/31","17:10",0.0,28.5,49.4,993.2,252.6,1.7,5.8,224.2,0.01,16.9,27.7,"17:02:08",1
"16/08/31","17:20",0.0,28.3,49.0,993.4,269.2,1.0,3.2,232.7,0.02,16.6,27.4,"17:10:16",1
"16/08/31","17:30",0.0,28.0,50.3,993.4,258.3,1.6,6.0,229.8,0.01,16.7,27.1,"17:28:32",1
"16/08/31","17:40",0.0,27.8,52.1,993.7,258.0,1.2,4.0,225.4,0.00,17.1,27.3,"17:39:28",1
"16/08/31","17:50",0.0,27.6,52.9,993.7,285.2,1.0,3.7,244.3,0.00,17.2,27.1,"17:43:44",1
"16/08/31","18:00",0.0,27.3,54.3,994.4,285.0,1.1,3.5,43.3,0.00,17.3,27.0,"17:52:32",1
"16/08/31","18:10",0.0,27.1,55.2,993.9,267.1,1.2,5.8,230.5,0.00,17.4,26.9,"18:09:44",1
"16/08/31","18:20",0.0,26.8,56.5,994.4,271.6,1.0,2.7,234.8,0.00,17.5,26.7,"18:13:36",1
"16/08/31","18:30",0.0,26.5,57.7,994.4,302.2,0.7,2.1,228.7,0.00,17.5,26.7,"18:21:36",1
"16/08/31","18:40",0.0,26.3,58.4,994.8,283.2,0.7,1.8,311.1,0.00,17.5,26.4,"18:30:08",1
"16/08/31","18:50",0.0,26.0,59.3,995.1,304.5,0.7,2.0,340.1,0.00,17.5,26.6,"18:48:32",1
"16/08/31","19:00",0.0,25.7,60.9,995.6,313.3,0.7,2.1,346.0,0.00,17.6,26.3,"18:50:32",1
"16/08/31","19:10",0.0,25.5,61.9,995.8,316.3,0.6,1.8,312.1,0.00,17.7,26.4,"19:09:28",1
"16/08/31","19:20",0.0,25.2,63.9,995.6,323.3,0.7,1.6,357.3,0.00,17.9,26.2,"19:16:32",1
"16/08/31","19:30",0.0,24.9,65.3,995.8,316.5,0.7,1.6,320.1,0.00,18.0,26.2,"19:20:16",1
"16/08/31","19:40",0.0,24.6,66.6,996.5,317.3,0.8,2.5,331.4,0.00,18.0,26.0,"19:38:40",1
"16/08/31","19:50",0.0,24.4,67.6,996.7,313.7,0.8,1.6,322.3,0.00,18.1,25.7,"19:42:32",1
"16/08/31","20:00",0.0,24.1,69.3,997.0,298.6,0.7,1.7,330.6,0.00,18.2,25.8,"19:59:52",1
"16/08/31","20:10",0.0,24.0,70.3,997.0,297.1,0.8,1.7,332.3,0.00,18.3,25.6,"20:07:52",1
"16/08/31","20:20",0.0,23.8,71.4,997.4,299.3,0.8,1.8,304.4,0.00,18.4,25.6,"20:13:44",1
"16/08/31","20:30",0.0,23.5,72.9,997.2,294.3,1.0,1.7,332.6,0.00,18.4,25.5,"20:22:40",1
"16/08/31","20:40",0.0,23.3,74.4,997.4,303.4,1.3,2.7,311.0,0.00,18.5,25.5,"20:38:48",1
"16/08/31","20:50",0.0,23.7,73.8,997.4,298.0,1.1,2.1,328.4,0.00,18.8,25.2,"20:47:20",1
"16/08/31","21:00",0.0,23.8,73.5,997.9,315.8,1.1,2.0,312.6,0.00,18.8,25.4,"20:57:20",1
"16/08/31","21:10",0.0,23.7,73.6,997.9,280.6,1.1,1.9,243.5,0.00,18.7,25.3,"21:08:40",1
"16/08/31","21:20",0.0,23.1,75.6,998.2,289.6,1.1,1.7,324.7,0.00,18.6,25.3,"21:15:20",1
"16/08/31","21:30",0.0,22.7,77.4,997.9,268.9,1.1,1.7,248.5,0.00,18.6,25.1,"21:21:44",1
"16/08/31","21:40",0.0,22.6,78.5,998.2,258.8,1.1,1.9,247.1,0.00,18.7,25.1,"21:38:00",1
"16/08/31","21:50",0.0,22.5,78.9,998.2,275.0,1.1,2.0,240.0,0.00,18.7,25.2,"21:46:56",1
"16/08/31","22:00",0.0,22.2,80.0,998.2,305.4,0.8,1.8,330.1,0.00,18.6,24.9,"21:50:32",1
"16/08/31","22:10",0.0,21.8,82.0,998.4,290.3,0.8,1.6,332.1,0.00,18.6,25.0,"22:00:02",1
"16/08/31","22:20",0.0,21.4,84.1,998.4,327.1,1.3,2.2,335.6,0.00,18.6,24.9,"22:19:20",1
"16/08/31","22:30",0.0,21.3,85.0,998.6,290.8,0.8,2.0,336.9,0.00,18.7,24.7,"22:20:16",1
"16/08/31","22:40",0.0,21.1,85.8,998.6,311.9,0.7,1.2,348.5,0.00,18.7,24.8,"22:30:02",1
"16/08/31","22:50",0.0,21.0,86.7,998.9,330.1,1.2,2.0,351.7,0.00,18.7,24.8,"22:44:16",1
"16/08/31","23:00",0.0,20.8,87.4,998.6,304.3,0.8,1.7,325.5,0.00,18.7,24.5,"22:55:12",1
"16/08/31","23:10",0.0,20.6,88.4,998.6,302.4,0.8,1.7,334.2,0.00,18.7,24.6,"23:07:36",1
"16/08/31","23:20",0.0,20.4,89.1,998.9,297.6,0.7,1.4,328.5,0.00,18.6,24.5,"23:14:48",1
"16/08/31","23:30",0.0,20.3,89.4,998.9,293.6,0.7,1.3,313.9,0.00,18.5,24.2,"23:22:16",1
"16/08/31","23:40",0.0,20.3,89.9,999.1,295.4,1.0,1.1,301.9,0.00,18.6,24.3,"23:31:04",1
"16/08/31","23:50",0.0,20.3,90.1,999.1,280.5,0.7,0.9,264.9,0.00,18.7,24.3,"23:44:48",1
"16/08/31","24:00",0.0,20.4,90.2,999.3,284.9,0.8,1.2,308.5,0.00,18.8,24.3,"23:51:12",1
